Location: Be?chatów
(51.3665°N, 19.3745°E)
Time: 07:40:43
(UTC+00:00)

USA 229 - Pass Details

Date: 19 May 2025
Orbit: 872 x 1339 km, 63.4° (Epoch: 10 June)

Event Time Altitude Azimuth Distance (km) Brightness Sun altitude
Exits shadow 23:20:52 18° 234° (SW) 2,133 4.9 -18.1°
Maximum altitude 23:25:37 75° 318° (NW) 1,040 3.7 -17.9°
Drops below altitude 10° 23:32:34 10° 44° (NE) 2,958 6.9 -17.7°
Sets 23:35:25 0° 46° (NE) 3,991 7.7 -17.6°
